Regional Weather Roundup
Issued by NWS

Home | Current Version | Previous Version | Graphics & Text | Print | Product List | Glossary On
Versions: 1 2 3 4 5 6 7 8 9 10 11 12 13 14 15 16 17 18 19 20 21 22 23 24 25 26 27 28 29 30 31 32 33 34 35 36 37 38 39 40 41 42 43 44 45 46 47 48 49 50
000
ASUS43 KOAX 272110
RWRNE

WEATHER ROUNDUP FOR NEBRASKA
NATIONAL WEATHER SERVICE OMAHA NE
400 PM CDT WED MAY 27 2015

NOTES: SATELLITE DATA IS BEING USED TO AUGMENT CLOUD COVER ABOVE
       12000 FEET.
       "FAIR" INDICATES FEW OR NO CLOUDS BELOW 12,000 FEET WITH NO
       SIGNIFICANT WEATHER AND/OR OBSTRUCTIONS TO VISIBILITY.

  * THESE STATIONS DO NOT REPORT WEATHER SUCH AS RAIN...SNOW OR FOG.

NEZ001>004-019>022-054>056-272200-
NEBRASKA PANHANDLE

CITY           SKY/WX    TMP DP  RH WIND       PRES   REMARKS
SCOTTSBLUFF    CLOUDY    62 N/A N/A SE7       30.02F
ALLIANCE       CLOUDY    62  48  60 W22G35    30.02R
CHADRON        TSTM      63  49  60 E10G37    29.97R VSB 3/4
KIMBALL          N/A    N/A N/A N/A MISG        N/A
SIDNEY         PTSUNNY   72  55  55 S8        30.02F
$$

NEZ057>060-069>072-079>082-272200-
SOUTHWEST NEBRASKA

CITY           SKY/WX    TMP DP  RH WIND       PRES   REMARKS
NORTH PLATTE   MOSUNNY   75  55  49 S21G26    30.02F
IMPERIAL       PTSUNNY   69  58  67 SE16      29.98F
LEXINGTON      CLOUDY    71  58  63 S17       30.06F
MCCOOK         PTSUNNY   74  58  57 SE18      30.02F
OGALLALA       MOSUNNY   73  56  55 SE17G23   30.00F
$$

NEZ005>010-023>029-035>040-094-272200-
NORTH CENTRAL NEBRASKA

CITY           SKY/WX    TMP DP  RH WIND       PRES   REMARKS
VALENTINE      PTSUNNY   77  49  37 S18G29    30.00F
AINSWORTH      PTSUNNY   75  50  40 SE9       30.03F
BROKEN BOW     MOSUNNY   76  52  43 S18G25    30.04F
O`NEILL        PTSUNNY   76  45  32 S8        30.05S
ORD            PTSUNNY   79  47  32 SE8       30.03F
THEDFORD       PTSUNNY   76  53  44 SE18      30.03F
$$

NEZ041-046>049-061>064-073>077-083>087-272200-
SOUTH CENTRAL NEBRASKA

CITY           SKY/WX    TMP DP  RH WIND       PRES   REMARKS
GRAND ISLAND   PTSUNNY   82  41  23 S10       30.06F
AURORA         PTSUNNY   81  42  25 SE17      30.06F
HASTINGS       PTSUNNY   79  50  36 SE8       30.06F
HEBRON         FAIR      82  38  20 S6        30.07F
HOLDREGE       LGT RAIN  71  55  57 S9        30.07F
KEARNEY *      CLOUDY    66  59  77 SE9       30.09S
YORK           MOSUNNY   81  41  24 S7        30.07S
$$

NEZ011>018-030>034-042>045-272200-
NORTHEAST NEBRASKA

CITY           SKY/WX    TMP DP  RH WIND       PRES   REMARKS
NORFOLK        MOSUNNY   82  48  30 S7        30.04F
ALBION         MOSUNNY   78  43  28 S10       30.06S
BLAIR          SUNNY     83  45  26 S12       30.06S
COLUMBUS *     MOSUNNY   82  45  26 S14       30.07S
FREMONT        MOSUNNY   83  47  28 S3        30.06S
TEKAMAH        SUNNY     85  50  29 S12       30.04S
WAYNE          PTSUNNY   80  53  39 S3        30.05S
$$

NEZ050>053-065>068-078-088>093-272200-
SOUTHEAST NEBRASKA

CITY           SKY/WX    TMP DP  RH WIND       PRES   REMARKS
LINCOLN        MOSUNNY   83  48  29 S12       30.06F
OMAHA EPPLEY   MOSUNNY   83  48  29 SW7       30.05S
BEATRICE       MOSUNNY   80  48  32 S13       30.07F
NEBRASKA CITY  MOSUNNY   80  43  27 S8        30.08S
PLATTSMOUTH    MOSUNNY   82  42  24 S9        30.07S
$$

NEZ044-045-051>053-067-272200-
OMAHA AREA

CITY           SKY/WX    TMP DP  RH WIND       PRES   REMARKS
OMAHA EPPLEY   MOSUNNY   83  48  29 SW7       30.05S
BLAIR          SUNNY     83  45  26 S12       30.06S
FREMONT        MOSUNNY   83  47  28 S3        30.06S
MILLARD        MOSUNNY   82  51  34 CALM      30.06S
OFFUTT AFB     MOSUNNY   82  53  36 W7        30.05S
PLATTSMOUTH    MOSUNNY   82  42  24 S9        30.07S
WAHOO          FAIR      83  46  27 CALM      30.06F
$$


USA.gov is the U.S. government's official web portal to all federal, state and local government web resources and services.